Location: Corralito
(10.2667°N, 66.9500°W)
Time: 21:50:51
(UTC+00:00)

Cosmos 1190 Rocket - Pass Details

Date: 07 December 2023
Orbit: 756 x 777 km, 74.1° (Epoch: 29 February)

Event Time Altitude Azimuth Distance (km) Brightness Sun altitude
Rises 23:16:14 0° 347° (NNW) 3,237 7.2 -17.0°
Reaches altitude 10° 23:18:37 10° 348° (NNW) 2,307 6.4 -17.5°
Maximum altitude 23:23:52 88° 77° (ENE) 771 3.9 -18.7°
Drops below altitude 10° 23:29:05 10° 167° (SSE) 2,294 6.5 -19.9°
Sets 23:31:26 0° 167° (SSE) 3,217 7.3 -20.5°
